Вернуться в каталог

BREEZE-M R/B

АктивенHEO
NORAD 34711·ROCKET BODY·🇷🇺 Russia

Запущен Apr 3, 2009 с Baikonur Cosmodrome

Loading…

Ближайшие Пролёты (ближайшие 24 часа)

TLE

СвежийSource: Space-Track

Эпоха: Sep 13, 2026, 12:14 UTC

1 34711U 09016B   26256.50993607 -.00000132  00000-0  00000-0 0  9999
2 34711  20.9745 297.2184 5939737  30.1629 353.7172  2.20366697148497

Отслеживайте BREEZE-M R/B в реальном времени с AllMySat

Download on the App Store